            UTC date,        Decimal date,     TCCON,      CAMS,       CSU,        OU, TM5-4DVAR,      Ames,        CT,        UT,      LoFI,     Baker,  CMS-Flux
 2014-08-05 11:06:57,   2014.593049752664,  390.7633,       nan,       nan,  395.7706,       nan,       nan,       nan,       nan,  392.2913,  394.3200,       nan
 2014-08-05 11:34:19,   2014.593101820142,  390.6184,       nan,       nan,  395.7711,       nan,       nan,       nan,       nan,  392.2915,  394.3000,       nan
 2014-08-05 15:06:02,   2014.593504629630,  390.7650,       nan,       nan,  395.7201,       nan,       nan,       nan,       nan,  392.4288,  394.5200,       nan
 2014-08-05 15:41:01,   2014.593571188483,  390.9550,       nan,       nan,  395.7749,       nan,       nan,       nan,       nan,  392.4619,  394.7000,       nan
 2014-08-05 15:56:22,   2014.593600393201,  390.8380,       nan,       nan,  395.8470,       nan,       nan,       nan,       nan,  392.5040,  394.9500,       nan
 2014-08-09 08:48:26,   2014.603745116692,  390.4150,       nan,       nan,  396.3533,       nan,       nan,       nan,       nan,  391.5679,  394.0500,       nan
 2014-08-09 09:28:48,   2014.603821917808,  390.3717,       nan,       nan,  396.0604,       nan,       nan,       nan,       nan,  391.3844,  393.6700,       nan
 2014-08-09 10:12:23,   2014.603904838914,  390.0700,       nan,       nan,  395.9891,       nan,       nan,       nan,       nan,  391.3493,  393.4500,       nan
 2014-08-09 10:34:13,   2014.603946378742,  390.0189,       nan,       nan,  395.8746,       nan,       nan,       nan,       nan,  391.3505,  393.4400,       nan
 2014-08-09 10:59:54,   2014.603995243531,  389.6300,       nan,       nan,  395.8237,       nan,       nan,       nan,       nan,  391.3238,  393.3100,       nan
 2014-08-09 11:27:21,   2014.604047469559,  389.0100,       nan,       nan,  395.8246,       nan,       nan,       nan,       nan,  391.3248,  393.3300,       nan
 2014-08-10 11:59:23,   2014.606848141806,  391.9600,       nan,       nan,  397.1853,       nan,       nan,       nan,       nan,  394.3723,  395.2700,       nan
 2014-08-11 08:02:49,   2014.609137779046,  391.0500,       nan,       nan,  396.3701,       nan,       nan,       nan,       nan,  392.0027,  394.7100,       nan
 2014-08-11 08:40:53,   2014.609210204211,  391.2525,       nan,       nan,  396.2709,       nan,       nan,       nan,       nan,  391.9462,  394.4500,       nan
 2014-08-11 08:52:01,   2014.609231386352,  391.2600,       nan,       nan,  396.2709,       nan,       nan,       nan,       nan,  391.9473,  394.4400,       nan
 2014-08-11 09:45:36,   2014.609333333333,  391.3600,       nan,       nan,  396.0356,       nan,       nan,       nan,       nan,  392.1009,  394.0800,       nan
 2014-08-11 10:05:27,   2014.609371099696,  390.9575,       nan,       nan,  395.9729,       nan,       nan,       nan,       nan,  392.0577,  393.9100,       nan
 2014-08-11 10:28:33,   2014.609415049467,  390.7100,       nan,       nan,  395.9729,       nan,       nan,       nan,       nan,  392.0577,  393.8900,       nan
 2014-09-03 08:28:43,   2014.672200754693,  394.3050,  394.5166,  395.0806,  397.5704,  394.1026,  397.2775,       nan,  394.7019,  394.1800,  394.6200,       nan
 2014-09-03 10:11:51,   2014.672396974886,  393.3600,  394.2463,  394.7282,  397.2637,  393.8269,  396.6559,       nan,  394.7055,  394.1498,  394.0300,       nan
 2014-09-03 10:35:27,   2014.672441875951,  393.4350,  394.1561,  394.6260,  397.0596,  393.7466,  396.5601,       nan,  394.6483,  394.0908,  393.8600,       nan
 2014-09-03 11:02:26,   2014.672493214104,  393.3700,  394.1387,  394.5937,  397.0604,  393.7214,  396.3823,       nan,  394.6076,  394.0900,  393.8200,       nan
 2014-09-03 11:41:29,   2014.672567510147,  393.1200,  394.1217,  394.5612,  397.0614,  393.6957,  396.3836,       nan,  394.6085,  394.0891,  393.7600,       nan
 2014-09-03 11:59:49,   2014.672602390918,  393.2700,  394.1052,  394.5612,  397.0620,  393.6962,  396.3843,       nan,  394.6090,  394.0886,  393.7400,       nan
 2014-09-03 13:06:18,   2014.672728881279,  393.3200,  394.0688,  394.4764,  396.9279,  393.6121,  396.1449,       nan,  394.5599,  393.9393,  393.6600,       nan
 2014-09-03 13:33:41,   2014.672780980467,  393.3850,  394.1207,  394.5124,  396.8462,  393.6336,  396.2311,       nan,  394.6171,  393.9933,  393.7600,       nan
 2014-09-03 14:05:02,   2014.672840626585,  393.2000,  394.1035,  394.4854,  396.8469,  393.6040,  396.1108,       nan,  394.5999,  393.9935,  393.7200,       nan
 2014-09-03 15:08:49,   2014.672961979959,  392.6200,  394.2811,  394.6231,  396.9239,  393.6948,  396.2202,       nan,  394.7523,  393.7584,  394.0400,       nan
 2014-09-04 11:45:54,   2014.675315639269,  396.3300,  394.9086,  394.3607,  396.7184,  393.3959,  396.2325,       nan,  394.5969,  393.6343,  393.4600,       nan
 2014-09-05 08:40:36,   2014.677702815829,  394.3089,  395.6359,  394.6156,  397.4422,  394.0163,  396.9423,       nan,  395.1515,  394.2046,  394.2000,       nan
 2014-09-05 09:05:29,   2014.677750158549,  394.5113,  395.4140,  394.4617,  397.1889,  393.8826,  396.8414,       nan,  394.9733,  394.3456,  393.9700,       nan
 2014-09-05 09:35:54,   2014.677808028919,  394.2147,  395.4143,  394.4231,  397.1886,  393.8383,  396.8415,       nan,  394.9733,  394.3452,  393.9500,       nan
 2014-09-05 09:59:51,   2014.677853595890,  394.3038,  395.2645,  394.3410,  397.1199,  393.7787,  396.7204,       nan,  394.8824,  394.2793,  393.7800,       nan
 2014-09-05 10:27:04,   2014.677905377981,  393.9050,  395.1426,  394.2407,  397.0667,  393.7008,  396.5260,       nan,  394.7835,  394.2287,  393.6300,       nan
 2014-09-05 11:07:09,   2014.677981640030,  394.3900,  395.1175,  394.1689,  396.9518,  393.6415,  396.4570,       nan,  394.7601,  394.2281,  393.6000,       nan
 2014-09-06 08:59:50,   2014.680479134957,  393.4250,  396.0343,  394.2515,  397.7013,  393.9673,  397.0464,  394.1654,  395.3367,  394.6438,  394.8800,       nan
 2014-09-06 10:41:27,   2014.680672469559,  394.1416,  395.5233,  393.8726,  397.2145,  393.6105,  396.7004,  393.9664,  394.9476,  394.5633,  394.3100,       nan
 2014-09-06 10:59:21,   2014.680706525875,  393.9943,  395.5013,  393.8726,  397.2146,  393.6106,  396.7005,  393.9664,  394.9477,  394.5632,  394.3100,       nan
 2014-09-06 13:21:03,   2014.680976122527,  394.0000,  395.4736,  393.7860,  397.1806,  393.5095,  396.4602,  393.8389,  394.9852,  394.4545,  394.4200,       nan
 2014-09-06 13:37:48,   2014.681007990868,  393.6200,  395.4736,  393.7610,  397.1021,  393.4793,  396.4602,  393.7266,  394.9852,  394.4545,  394.4100,       nan
 2014-09-07 08:39:39,   2014.683180460426,  394.6125,  396.1149,  394.2549,  397.9016,  394.0116,  397.2749,  394.1006,  395.2117,  394.8198,  395.3600,       nan
 2014-09-07 09:06:28,   2014.683231481481,  394.3193,  395.8830,  394.1292,  397.6337,  393.8833,  396.8977,  394.0521,  395.1455,  394.9545,  395.0800,       nan
 2014-09-07 09:37:09,   2014.683289859209,  394.3750,  395.8567,  394.1053,  397.6333,  393.8512,  396.8977,  394.0521,  395.1457,  394.9535,  395.0800,       nan
 2014-09-07 10:06:17,   2014.683345287925,  394.1679,  395.6895,  394.0095,  397.5524,  393.7653,  396.8417,  394.0521,  395.2242,  394.8887,  394.8800,       nan
 2014-09-07 10:35:23,   2014.683400653222,  394.2000,  395.5560,  393.9329,  397.3678,  393.6984,  396.7440,  393.8954,  395.1413,  394.8395,  394.7100,       nan
 2014-09-07 11:03:03,   2014.683453291476,  394.1800,  395.5284,  393.9128,  397.3679,  393.6783,  396.6072,  393.8954,  395.1132,  394.8390,  394.7000,       nan
 2014-09-07 11:34:26,   2014.683513001015,  394.0692,  395.5000,  393.8939,  397.3679,  393.6586,  396.6073,  393.8954,  395.1133,  394.8389,  394.6900,       nan
 2014-09-07 12:07:15,   2014.683575437595,  394.0160,  395.4711,  393.8769,  397.2584,  393.6401,  396.5088,  393.7601,  395.0878,  394.8448,  394.6700,       nan
 2014-09-07 12:36:59,   2014.683632007864,  394.4500,  395.4395,  393.8605,  397.2588,  393.6220,  396.5093,  393.7601,  395.0881,  394.8451,  394.6500,       nan
 2014-09-07 13:04:17,   2014.683683948503,  393.8300,  395.4093,  393.8457,  397.2588,  393.6034,  396.4386,  393.7601,  395.0753,  394.8452,  394.6400,       nan
 2014-09-07 13:40:09,   2014.683752187976,  393.7467,  395.4791,  393.8824,  397.2004,  393.6254,  396.5293,  393.6475,  395.1580,  394.8910,  394.7700,       nan
 2014-09-07 14:06:10,   2014.683801686961,  393.6878,  395.5766,  393.9338,  397.2666,  393.6575,  396.5659,  393.6475,  395.2602,  394.9502,  394.9500,       nan
 2014-09-07 15:10:28,   2014.683924023338,  394.0550,  395.6896,  393.9904,  397.2997,  393.6865,  396.6381,  393.4669,  395.3972,  394.7914,  395.1900,       nan
 2014-09-08 08:38:50,   2014.685918632674,  394.3100,  396.1188,  394.3864,  398.0372,  394.2673,  397.7028,  394.5949,  395.3876,  394.3074,  395.6000,       nan
 2014-09-08 09:05:33,   2014.685969463470,  394.2321,  395.8730,  394.2494,  397.7719,  394.1278,  397.2611,  394.5104,  395.2661,  394.2687,  395.3200,       nan
 2014-09-08 09:36:10,   2014.686027714358,  394.1387,  395.8592,  394.2189,  397.7724,  394.0913,  397.2613,  394.5104,  395.2662,  394.2692,  395.3100,       nan
 2014-09-08 10:07:13,   2014.686086789701,  394.0806,  395.6854,  394.1115,  397.6889,  393.9940,  396.9627,  394.5104,  395.3751,  394.2054,  395.1100,       nan
 2014-09-08 10:38:06,   2014.686145547945,  394.0700,  395.6503,  394.0801,  397.5484,  393.9665,  396.9627,  394.3214,  395.3753,  394.2053,  395.0900,       nan
 2014-09-08 11:05:46,   2014.686198186200,  393.8750,  395.5104,  393.9917,  397.4873,  393.8920,  396.9563,  394.3214,  395.2572,  394.1563,  394.9300,       nan
 2014-09-08 11:36:50,   2014.686257293252,  393.9756,  395.4762,  393.9602,  397.4873,  393.8674,  396.9562,  394.3214,  395.2572,  394.1564,  394.9200,       nan
 2014-09-08 12:07:00,   2014.686314687976,  393.7647,  395.4421,  393.9319,  397.3764,  393.8438,  396.8714,  394.1105,  395.2329,  394.1715,  394.9100,       nan
 2014-09-08 12:36:03,   2014.686369958143,  393.7367,  395.4086,  393.9033,  397.3764,  393.8206,  396.8714,  394.1105,  395.2329,  394.1715,  394.9000,       nan
 2014-09-08 13:06:13,   2014.686427352867,  393.7119,  395.4776,  393.9300,  397.4339,  393.8420,  396.8777,  394.1105,  395.3102,  394.2182,  395.0500,       nan
 2014-09-08 13:37:56,   2014.686487696601,  393.6480,  395.4461,  393.9013,  397.3283,  393.8177,  396.8782,  393.9027,  395.3106,  394.2185,  395.0400,       nan
 2014-09-08 14:06:26,   2014.686541920345,  393.6971,  395.5432,  393.9440,  397.3980,  393.8490,  396.9123,  393.9027,  395.4196,  394.2797,  395.2200,       nan
 2014-09-08 14:25:00,   2014.686577245053,  393.6000,  395.5114,  393.9440,  397.3981,  393.8490,  396.9123,  393.9027,  395.4196,  394.2797,  395.2100,       nan
 2014-09-09 08:40:31,   2014.688661561390,  394.0530,  395.7362,  394.3272,  397.8537,  394.2638,  397.7411,  394.3403,  395.2353,  395.0779,  395.6000,       nan
 2014-09-09 09:05:45,   2014.688709570015,  394.0825,  395.6989,  394.2948,  397.7082,  394.2208,  397.5525,  394.3179,  395.4448,  395.0186,  395.5800,       nan
 2014-09-09 09:32:50,   2014.688761098427,  394.2875,  395.4744,  394.1536,  397.5890,  394.0788,  397.3606,  394.3179,  395.2887,  394.9022,  395.2500,       nan
 2014-09-09 10:10:00,   2014.688831811263,  394.2372,  395.3048,  394.0434,  397.5015,  393.9679,  397.1994,  394.3179,  395.1024,  394.8177,  395.0100,       nan
 2014-09-09 10:36:25,   2014.688882071284,  394.2993,  395.2637,  394.0128,  397.3528,  393.9303,  397.1995,  394.1298,  395.1024,  394.8166,  394.9800,       nan
 2014-09-09 11:06:04,   2014.688938483004,  394.0294,  395.1276,  393.9245,  397.2886,  393.8431,  397.0191,  394.1298,  394.9518,  394.7503,  394.7900,       nan
 2014-09-09 11:34:22,   2014.688992326230,  393.9946,  395.0889,  393.8963,  397.2886,  393.8094,  397.0194,  394.1298,  394.9519,  394.7491,  394.7600,       nan
 2014-09-09 11:57:33,   2014.689036434551,  393.8171,  395.0506,  393.8963,  397.2886,  393.8097,  397.0195,  394.1298,  394.9521,  394.7482,  394.7400,       nan
 2014-09-09 12:45:52,   2014.689128361238,  394.0825,  394.9791,  393.8405,  397.1608,  393.7425,  396.9055,  393.9267,  394.9047,  394.6791,  394.6800,       nan
 2014-09-09 13:06:47,   2014.689168157027,  394.0900,  395.0699,  393.8694,  397.2215,  393.7575,  396.9233,  393.9267,  394.9547,  394.7406,  394.8100,       nan
 2014-09-09 13:29:44,   2014.689211821410,  393.9300,  395.0345,  393.8694,  397.2215,  393.7575,  396.9233,  393.9267,  394.9547,  394.7406,  394.7900,       nan
 2014-09-10 08:40:26,   2014.691401128869,  394.2715,  395.4521,  394.4887,  397.5824,  394.2342,  397.6935,  394.3126,  395.0980,  394.6578,  395.2700,       nan
 2014-09-10 09:06:35,   2014.691450881532,  393.9836,  395.4102,  394.4594,  397.4468,  394.2085,  397.4662,  394.2953,  395.1620,  394.7409,  395.2600,       nan
 2014-09-10 09:36:44,   2014.691508244546,  393.8615,  395.2028,  394.3284,  397.3393,  394.0806,  397.2786,  394.2953,  395.0313,  394.6176,  394.9700,       nan
 2014-09-10 10:06:10,   2014.691564244039,  393.9885,  395.0419,  394.2254,  397.2596,  393.9841,  397.0881,  394.1974,  395.0885,  394.5281,  394.7500,       nan
 2014-09-10 10:38:24,   2014.691625570776,  394.0121,  394.9955,  394.1953,  397.0955,  393.9600,  397.0882,  394.1020,  395.0888,  394.5262,  394.7200,       nan
 2014-09-10 11:08:17,   2014.691682426433,  393.9216,  394.8647,  394.1102,  397.0388,  393.8842,  396.9578,  394.1020,  394.9594,  394.4564,  394.5500,       nan
 2014-09-10 11:36:45,   2014.691736586758,  393.7669,  394.8204,  394.0814,  397.0393,  393.8612,  396.9581,  394.0097,  394.9594,  394.4548,  394.5100,       nan
 2014-09-10 11:54:39,   2014.691770643075,  393.4800,  394.7768,  394.0814,  397.0396,  393.8616,  396.9584,  394.0097,  394.9594,  394.4539,  394.5000,       nan
 2014-09-10 12:37:49,   2014.691852771436,  394.0133,  394.7335,  394.0211,  396.8921,  393.8104,  396.8004,  393.9137,  394.9039,  394.3612,  394.4600,       nan
 2014-09-10 13:09:17,   2014.691912639523,  393.6750,  394.7716,  394.0434,  396.9468,  393.8347,  396.7703,  393.7726,  394.9415,  394.4265,  394.5700,       nan
 2014-09-10 13:39:38,   2014.691970383054,  393.3067,  394.7294,  394.0137,  396.8039,  393.8092,  396.7708,  393.6853,  394.9414,  394.4266,  394.5500,       nan
 2014-09-10 14:07:41,   2014.692023750634,  393.5017,  394.7885,  394.0506,  396.8701,  393.8474,  396.7672,  393.6853,  395.0035,  394.5110,  394.7100,       nan
 2014-09-11 08:41:21,   2014.694142598935,  393.3775,  395.2078,  394.4171,  397.4998,  394.3367,  397.6676,  394.1996,  394.9773,  394.4475,  395.1700,       nan
 2014-09-11 09:07:21,   2014.694192066210,  393.6356,  395.1761,  394.3923,  397.4068,  394.3093,  397.3133,  394.2488,  394.9985,  394.5206,  395.1500,       nan
 2014-09-11 09:37:40,   2014.694249746322,  393.7867,  394.9937,  394.2658,  397.3002,  394.1802,  397.1322,  394.2488,  394.8967,  394.4256,  394.8700,       nan
 2014-09-11 10:06:42,   2014.694304984779,  394.0925,  394.8531,  394.1673,  397.2207,  394.0834,  396.8468,  394.1662,  394.9737,  394.3545,  394.6600,       nan
 2014-09-11 10:32:54,   2014.694354832572,  393.9518,  394.8163,  394.1407,  397.0939,  394.0597,  396.8467,  394.0846,  394.9733,  394.3545,  394.6300,       nan
 2014-09-11 11:09:12,   2014.694423896499,  393.7460,  394.7041,  394.0612,  397.0359,  393.9838,  396.6675,  394.0846,  394.9020,  394.2994,  394.4500,       nan
 2014-09-11 11:37:42,   2014.694478120244,  393.8300,  394.6702,  394.0359,  397.0364,  393.9625,  396.6678,  394.0055,  394.9020,  394.2993,  394.4300,       nan
 2014-09-11 12:38:29,   2014.694593765855,  393.6800,  394.6064,  393.9846,  396.9242,  393.9177,  396.5901,  393.9263,  394.8496,  394.2891,  394.3800,       nan
 2014-09-11 13:02:06,   2014.694638698630,  393.3100,  394.6487,  394.0135,  396.9789,  393.9449,  396.5474,  393.7994,  394.8771,  394.3391,  394.5000,       nan
 2014-09-11 13:41:40,   2014.694713977676,  393.8550,  394.6202,  393.9912,  396.8727,  393.9230,  396.5477,  393.7356,  394.8770,  394.3396,  394.4600,       nan
 2014-09-11 14:06:15,   2014.694760749619,  393.5350,  394.6842,  394.0349,  396.9385,  393.9633,  396.5331,  393.7356,  394.9289,  394.4032,  394.6100,       nan
 2014-09-12 09:18:28,   2014.696952942669,  393.4300,  395.7832,  394.2243,  397.4910,  394.0243,  396.8794,  394.0556,  394.8394,  394.3383,  394.6700,       nan
 2014-09-12 09:40:59,   2014.696995782598,  394.0333,  395.7832,  394.2066,  397.4910,  394.0008,  396.8794,  394.0556,  394.8401,  394.3382,  394.6500,       nan
 2014-09-12 10:06:45,   2014.697044805936,  393.8721,  395.6789,  394.1138,  397.4015,  393.9089,  396.7776,  393.9542,  394.7993,  394.2615,  394.4400,       nan
 2014-09-12 10:36:28,   2014.697101344495,  394.1250,  395.6965,  394.0945,  397.3108,  393.8964,  396.7776,  393.8652,  394.7993,  394.2615,  394.4100,       nan
 2014-09-12 11:07:37,   2014.697160610096,  394.2160,  395.6199,  394.0192,  397.2449,  393.8313,  396.5502,  393.8652,  394.7022,  394.2021,  394.2400,       nan
 2014-09-12 11:26:46,   2014.697197044647,  394.0266,  395.6372,  394.0192,  397.2455,  393.8319,  396.5507,  393.7892,  394.7025,  394.2018,  394.2100,       nan
 2014-09-12 12:06:11,   2014.697272038306,  394.0055,  395.6541,  393.9826,  397.1732,  393.8213,  396.4220,  393.7211,  394.6796,  394.2401,  394.1700,       nan
 2014-09-12 12:32:37,   2014.697322330036,  394.1033,  395.6691,  393.9656,  397.1738,  393.8179,  396.4225,  393.7211,  394.6798,  394.2405,  394.1500,       nan
 2014-09-12 13:05:06,   2014.697384132420,  394.1020,  395.7779,  394.0023,  397.2369,  393.8692,  396.4098,  393.6654,  394.7259,  394.2986,  394.2500,       nan
 2014-09-12 13:35:28,   2014.697441907661,  394.1089,  395.7910,  393.9848,  397.1700,  393.8672,  396.4102,  393.6135,  394.7261,  394.2990,  394.2300,       nan
 2014-09-12 14:06:24,   2014.697500761035,  393.9940,  395.9254,  394.0362,  397.2473,  393.9339,  396.4107,  393.6135,  394.7946,  394.3735,  394.3700,       nan
 2014-09-12 14:26:20,   2014.697538685946,  394.1900,  396.1061,  394.1287,  397.3506,  394.0277,  396.5593,  393.5661,  394.8956,  394.4734,  394.6000,       nan
 2014-09-18 10:17:09,   2014.713502949011,  393.9950,  397.5177,  394.3566,  397.9218,  394.2152,  397.1273,  394.6934,  394.4047,  394.2022,  395.4600,       nan
 2014-09-18 13:08:13,   2014.713828418316,  394.4200,  397.5962,  394.1799,  397.6962,  393.9717,  396.8858,  394.3403,  394.4520,  394.1016,  395.2000,       nan
 2014-09-19 09:49:44,   2014.716190512430,  394.1600,  396.4708,  394.3158,  397.7361,  394.2022,  397.1236,  394.4199,  394.5414,  394.4714,  395.0600,       nan
 2014-09-19 10:06:36,   2014.716222602740,  394.2213,  396.4708,  394.2890,  397.7353,  394.1556,  397.0358,  394.4199,  394.5320,  394.4697,  395.0900,       nan
 2014-09-19 10:36:04,   2014.716278665652,  394.0943,  396.2311,  394.1885,  397.5721,  394.0507,  396.9057,  394.3486,  394.4447,  394.4122,  394.9100,       nan
 2014-09-21 12:49:01,   2014.722011066717,  396.8100,  396.3387,  394.3794,  397.8719,  394.2705,  397.2640,  394.7485,  395.0106,  394.6288,  394.8700,       nan
 2014-09-21 13:00:58,   2014.722033802638,  395.6750,  396.4835,  394.4480,  397.9612,  394.3110,  397.3723,  394.7485,  395.1041,  394.7078,  395.0700,       nan
 2014-09-22 11:56:15,   2014.724650399543,  392.8050,  394.2695,  394.4781,  396.7271,  393.8108,  397.1917,  393.7061,  394.8256,  394.0021,  394.1000,       nan
 2014-09-22 12:32:37,   2014.724719590309,  392.8700,  394.2085,  394.4280,  396.6182,  393.7593,  397.0216,  393.5941,  394.7751,  393.9322,  394.0600,       nan
 2014-09-22 12:53:16,   2014.724758878742,  392.5600,  394.2439,  394.5123,  396.7015,  393.8443,  397.1608,  393.4781,  394.8565,  394.0153,  394.2000,       nan
 2014-09-22 13:39:17,   2014.724846429477,  392.6700,  394.1893,  394.4645,  396.6033,  393.7934,  396.9878,  393.3672,  394.8091,  394.0159,  394.1800,       nan
 2014-09-22 14:17:12,   2014.724918569254,  392.2800,  394.2150,  394.5549,  396.7092,  393.8822,  397.0053,  393.2626,  394.8767,  394.1291,  394.3900,       nan
 2014-09-22 14:24:27,   2014.724932363014,  392.3750,  394.2150,  394.5549,  396.7095,  393.8824,  397.0054,  393.2626,  394.8766,  394.1293,  394.3900,       nan
 2014-09-23 09:36:12,   2014.727123668189,  392.7900,  394.9394,  394.6082,  397.1057,  394.0882,  397.0951,  393.7151,  394.5880,  394.4063,  395.0100,       nan
 2014-09-23 09:56:16,   2014.727161846778,  393.4933,  394.7695,  394.4885,  396.9827,  393.9634,  396.9128,  393.6425,  394.4977,  394.2930,  394.7500,       nan
 2014-09-23 10:37:50,   2014.727240930999,  393.0372,  394.7428,  394.4490,  396.8444,  393.9254,  396.7630,  393.5689,  394.6153,  394.2928,  394.7000,       nan
 2014-09-23 11:17:31,   2014.727316432014,  393.2125,  394.5896,  394.3450,  396.7598,  393.8204,  396.5646,  393.4841,  394.5075,  394.2097,  394.4800,       nan
 2014-09-23 11:32:41,   2014.727345287925,  393.0300,  394.5896,  394.3260,  396.7600,  393.8034,  396.5647,  393.4841,  394.5076,  394.2097,  394.4600,       nan
 2014-09-23 12:06:59,   2014.727410546677,  393.0691,  394.5642,  394.3066,  396.6314,  393.7859,  396.4835,  393.3894,  394.4823,  394.0789,  394.4200,       nan
 2014-09-23 12:35:21,   2014.727464516743,  392.8100,  394.5396,  394.2872,  396.6335,  393.7670,  396.4846,  393.3894,  394.4827,  394.0813,  394.4000,       nan
 2014-09-23 13:05:56,   2014.727522704211,  393.2120,  394.6132,  394.3506,  396.7147,  393.8313,  396.4750,  393.3441,  394.5350,  394.1580,  394.5400,       nan
 2014-09-23 13:35:10,   2014.727578323186,  393.0364,  394.5878,  394.3313,  396.5774,  393.8113,  396.4759,  393.2267,  394.5352,  394.1597,  394.5200,       nan
 2014-09-23 14:09:20,   2014.727643328260,  392.9746,  394.6949,  394.4232,  396.6795,  393.9037,  396.5029,  393.2267,  394.6233,  394.2628,  394.7300,       nan
 2014-09-23 14:28:08,   2014.727679096905,  392.8400,  394.6681,  394.4232,  396.6806,  393.9044,  396.5034,  393.0621,  394.6232,  394.2637,  394.7100,       nan
 2014-09-24 09:11:50,   2014.729817034500,  393.2350,  395.5688,  394.6686,  397.0457,  394.3737,  397.3002,  393.6425,  394.9315,  394.4161,  394.4300,       nan
 2014-09-24 09:25:58,   2014.729843924404,  393.5900,  395.5623,  394.6686,  397.0462,  394.3742,  397.3002,  393.6425,  394.9316,  394.4177,  394.4200,       nan
 2014-09-24 10:08:33,   2014.729924942922,  393.5150,  395.3755,  394.5266,  396.9341,  394.2156,  397.0055,  393.5189,  394.7908,  394.3055,  394.1600,       nan
 2014-09-24 10:40:40,   2014.729986047691,  393.5125,  395.3610,  394.5164,  396.8300,  394.2057,  397.0055,  393.4700,  394.7908,  394.3041,  394.1300,       nan
 2014-09-24 11:05:11,   2014.730032692795,  393.1920,  395.2263,  394.4199,  396.7511,  394.1101,  396.7430,  393.4328,  394.6932,  394.2205,  393.9400,       nan
 2014-09-24 11:37:04,   2014.730093353628,  392.8662,  395.2103,  394.4112,  396.7515,  394.1011,  396.7433,  393.4028,  394.6935,  394.2183,  393.9100,       nan
 2014-09-24 12:03:06,   2014.730142884323,  393.1520,  395.1934,  394.4018,  396.6741,  394.0897,  396.6291,  393.3747,  394.6806,  393.8305,  393.8800,       nan
 2014-09-24 12:33:45,   2014.730201198630,  392.6462,  395.1758,  394.3936,  396.6749,  394.0761,  396.6297,  393.3645,  394.6811,  393.8308,  393.8400,       nan
 2014-09-25 09:32:24,   2014.732595890411,  393.3320,  395.0608,  395.0635,  397.4104,  394.6893,  396.9277,  394.1582,  394.9838,  394.4612,  394.6200,       nan
 2014-09-25 10:04:08,   2014.732656265855,  393.4200,  394.8817,  394.9253,  397.2903,  394.5336,  396.6500,  394.1262,  394.8626,  394.3501,  394.3900,       nan